Cedar Rapids, IA

11:12 AM CDT on April 23, 2017 (GMT -0500)
The Eastern Iowa Airport

Weather History for KCID - February, 2014

Change the Weather History Date:

Wednesday, February 12, 2014

  Actual Average Record
Temperature  
Mean Temperature 12 °F 23 °F  
Max Temperature 18 °F 32 °F 64 °F (1990)
Min Temperature 6 °F 15 °F -19 °F (1899)
Degree Days  
Heating Degree Days 53 42  
Month to date heating degree days 736 518  
Since 1 July heating degree days 5281 4666  
Cooling Degree Days 0 0  
Month to date cooling degree days 0 0  
Year to date cooling degree days 0 0  
Moisture  
Dew Point 7 °F    
Average Humidity 76    
Maximum Humidity 88    
Minimum Humidity 63    
Precipitation  
Precipitation 0.04 in 0.04 in 0.19 in (1964)
Month to date precipitation 0.35 0.46  
Year to date precipitation 0.79 1.38  
Sea Level Pressure  
Sea Level Pressure 30.12 in    
Wind  
Wind Speed 6 mph (SSE)    
Max Wind Speed 13 mph    
Max Gust Speed 18 mph    
Visibility 5 miles    
Events Snow    
T = Trace of Precipitation, MM = Missing Value Source: NWS Daily Summary

Daily Weather History Graph

Daily Weather History Graph

Search for Another Location

Airport or City:

Trip Planner

Search our weather history database for the weather conditions in past years. The results will help you decide how hot, cold, wet, or windy it might be!

Date:

Astronomy

Feb. 12, 2014 Rise Set
Actual Time 7:06 AM CST 5:36 PM CST
Civil Twilight 6:37 AM CST 6:04 PM CST
Nautical Twilight 6:05 AM CST 6:37 PM CST
Astronomical Twilight 5:32 AM CST 7:10 PM CST
Moon 3:49 PM CST (2/12) 5:24 AM CST (2/12)
Length of Visible Light 11h 27m
Length of Day
10h 29m
Waxing Gibbous, 95% of the Moon is Illuminated
Feb 12
Waxing Gibbous
Feb 14
Full
Feb 22
Last Quarter
Mar 1
New
Mar 8
First Quarter

Hourly Weather History & Observations

Time (CST) Temp. Windchill Dew Point Humidity Pressure Visibility Wind Dir Wind Speed Gust Speed Precip Events Conditions
12:52 AM 7.0 °F -7.5 °F -2.9 °F 64% 30.29 in 10.0 mi SSE 10.4 mph - N/A   Overcast
1:52 AM 9.0 °F -3.2 °F -0.9 °F 64% 30.28 in 10.0 mi South 8.1 mph - N/A   Overcast
2:52 AM 9.0 °F -5.1 °F -0.0 °F 67% 30.25 in 10.0 mi South 10.4 mph - N/A   Overcast
3:52 AM 10.0 °F -2.9 °F -0.0 °F 64% 30.23 in 10.0 mi South 9.2 mph - N/A   Overcast
4:52 AM 10.9 °F -3.4 °F 1.0 °F 64% 30.21 in 10.0 mi South 11.5 mph - N/A   Overcast
5:52 AM 10.9 °F -3.4 °F 1.9 °F 67% 30.21 in 10.0 mi South 11.5 mph - N/A   Overcast
6:52 AM 10.9 °F -0.8 °F 1.9 °F 67% 30.18 in 10.0 mi SSE 8.1 mph - N/A   Overcast
7:52 AM 12.0 °F -2.0 °F 3.0 °F 67% 30.17 in 7.0 mi SSE 11.5 mph - N/A   Overcast
8:07 AM 12.2 °F 1.7 °F 3.2 °F 67% 30.12 in 5.0 mi South 6.9 mph - 0.00 in Snow Light Snow
8:33 AM 12.2 °F 2.9 °F 3.2 °F 67% 30.13 in 6.0 mi SSE 5.8 mph - 0.00 in Snow Light Snow
8:52 AM 12.9 °F 1.6 °F 3.0 °F 65% 30.18 in 4.0 mi SSE 8.1 mph - 0.00 in Snow Light Snow
8:55 AM 12.2 °F 0.7 °F 3.2 °F 67% 30.12 in 2.0 mi SSE 8.1 mph - 0.00 in Snow Light Snow
9:27 AM 12.2 °F 2.9 °F 6.8 °F 79% 30.12 in 0.8 mi South 5.8 mph - 0.00 in Snow Light Snow
9:48 AM 12.2 °F 1.7 °F 6.8 °F 79% 30.13 in 0.8 mi South 6.9 mph - 0.00 in Snow Light Snow
9:52 AM 12.0 °F 2.7 °F 7.0 °F 80% 30.19 in 0.8 mi SSE 5.8 mph - 0.00 in Snow Snow
10:12 AM 12.2 °F 1.7 °F 8.6 °F 85% 30.12 in 1.0 mi SSE 6.9 mph - 0.00 in Snow Light Snow
10:24 AM 12.2 °F 1.7 °F 8.6 °F 85% 30.12 in 0.8 mi South 6.9 mph - 0.00 in Snow Light Snow
10:44 AM 14.0 °F 2.9 °F 8.6 °F 79% 30.12 in 1.0 mi SSE 8.1 mph - 0.00 in Snow Light Snow
10:52 AM 14.0 °F 2.9 °F 9.0 °F 80% 30.18 in 1.0 mi SSE 8.1 mph - 0.00 in Snow Light Snow
11:12 AM 14.0 °F 3.9 °F 8.6 °F 79% 30.11 in 0.8 mi SSE 6.9 mph - 0.00 in Snow Light Snow
11:47 AM 15.8 °F 6.1 °F 8.6 °F 73% 30.09 in 1.2 mi South 6.9 mph - 0.03 in Snow Light Snow
11:52 AM 15.1 °F 5.2 °F 10.0 °F 80% 30.14 in 1.5 mi SSE 6.9 mph - 0.03 in Snow Light Snow
12:08 PM 15.8 °F 6.1 °F 10.4 °F 79% 30.09 in 2.0 mi SSE 6.9 mph - 0.00 in Snow Light Snow
12:35 PM 15.8 °F 8.6 °F 10.4 °F 79% 30.09 in 2.0 mi South 4.6 mph - 0.01 in Snow Light Snow
12:52 PM 15.1 °F 9.4 °F 10.9 °F 84% 30.13 in 2.0 mi SSE 3.5 mph - 0.01 in Snow Light Snow
1:31 PM 15.8 °F 8.6 °F 10.4 °F 79% 30.05 in 4.0 mi SSE 4.6 mph - 0.00 in   Haze
1:32 PM 15.8 °F 8.6 °F 10.4 °F 79% 30.05 in 5.0 mi SSE 4.6 mph - 0.00 in Snow Light Snow
1:52 PM 16.0 °F 10.4 °F 12.0 °F 84% 30.10 in 4.0 mi ESE 3.5 mph - 0.00 in Snow Light Snow
2:21 PM 15.8 °F - 10.4 °F 79% 30.05 in 5.0 mi Calm Calm - 0.00 in Snow Light Snow
2:52 PM 18.0 °F - 10.9 °F 74% 30.10 in 6.0 mi Calm Calm - 0.00 in Snow Light Snow
3:52 PM 18.0 °F - 10.9 °F 74% 30.08 in 5.0 mi Calm Calm - 0.00 in   Haze
4:05 PM 17.6 °F - 10.4 °F 73% 30.04 in 6.0 mi Calm Calm - N/A   Haze
4:52 PM 17.1 °F 11.7 °F 10.9 °F 77% 30.10 in 6.0 mi WNW 3.5 mph - N/A   Haze
5:52 PM 17.1 °F 11.7 °F 10.9 °F 77% 30.07 in 7.0 mi SE 3.5 mph - N/A   Overcast
6:52 PM 17.1 °F 11.7 °F 10.9 °F 77% 30.05 in 7.0 mi SSE 3.5 mph - N/A   Overcast
7:52 PM 17.1 °F 11.7 °F 10.9 °F 77% 30.04 in 7.0 mi SSE 3.5 mph - N/A   Overcast
8:52 PM 17.1 °F - 10.9 °F 77% 30.05 in 6.0 mi Calm Calm - N/A   Haze
9:52 PM 18.0 °F 12.7 °F 12.0 °F 78% 30.04 in 6.0 mi SSW 3.5 mph - N/A   Haze
10:52 PM 18.0 °F - 12.9 °F 81% 30.00 in 5.0 mi Calm Calm - N/A   Haze
11:52 PM 18.0 °F 9.8 °F 12.9 °F 81% 29.98 in 5.0 mi South 5.8 mph - N/A   Haze